LFKFLFKB

Guest
Details From LFKF - Figari Sud Corse
To LFKB - Bastia Poretta
Flight Number -
Tags generated
Created
Modified
Stats Distance 67 nm / 124 km
Max Altitude 3,000 ft / 914 m
Waypoints 3
Social Downloads 9
Likes 0
Share VATSIM

Download

Looking for another format? Having issues loading an existing format? Contact us
Advertisement - Login to hide

Notes

Basic altitude profile: - Ascent Rate: 500ft/min - Ascent Speed: 140kts - Cruise Altitude: 3000ft - Cruise Speed: 200kts - Descent Rate: 500ft/min - Descent Speed: 140kts

Route

LFKF SZA LFKB

ID Type Via Altitude Latitude Longitude Leg Dist Tot Dist Heading (true) Name
O LFKF APT - 0 ft / 0 m 41.50206˚ 9.09696˚ - 0 nm - Figari Sud Corse
SZA VOR - 3,000 ft / 914 m 41.93747˚ 9.41622˚ 29 nm 29 nm 29° / 29° -
O LFKB APT - 0 ft / 0 m 42.55251˚ 9.48371˚ 37 nm 66 nm 5° / 5° Bastia Poretta

Altitude Profile

Advertisement - Login to hide

LFKF

Details ICAO LFKF (FSC)
Name Figari Sud Corse
Region France
Timezone Europe/Paris (UTC+1.0)
Stats Elevation 87 ft / 27 m (AMSL)
Location 41.502064° 9.096960°
Runways 1
Magnetic Variation 2.379° E

METAR

LFKF 161500Z AUTO 28013KT CAVOK 11/03 Q1008 BECMG 27017G30KT

Decode

TAF

TAF TAF LFKF 161400Z 1615/1715 27017G30KT 9999 FEW030 BKN045 BECMG 1619/1621 04005KT BECMG 1708/1710 24010KT

Decode

Departure Runways

ID Width Length Bearing (true) Bearing (mag) Surface Threshold Offset Overrun Length
05 148 ft / 45 m 8,131 ft / 2,478 m 47.42° 45.04° Asphalt 0 ft / 0 m 0 ft / 0 m
23 148 ft / 45 m 8,131 ft / 2,478 m 227.44° 225.06° Asphalt 0 ft / 0 m 0 ft / 0 m

LFKB

Details ICAO LFKB (BIA)
Name Bastia Poretta
Region France
Timezone Europe/Paris (UTC+1.0)
Stats Elevation 25 ft / 8 m (AMSL)
Location 42.552508° 9.483709°
Runways 1
Magnetic Variation 2.485° E

METAR

LFKB 161500Z AUTO 31015G26KT 9999 FEW038 SCT200 10/04 Q1006 BECMG 32010KT SCT030TCU

Decode

TAF

TAF AMD LFKB 161502Z 1615/1715 32020G30KT 9999 SCT030TCU BECMG 1620/1622 22010KT BECMG 1709/1710 02010KT TX13/1712Z TN03/1703Z

Decode

Destination Runways

ID Width Length Bearing (true) Bearing (mag) Surface Threshold Offset Overrun Length
16 148 ft / 45 m 8,273 ft / 2,522 m 162.83° 160.34° Concrete 0 ft / 0 m 131 ft / 40 m
34 148 ft / 45 m 8,273 ft / 2,522 m 342.84° 340.35° Concrete 0 ft / 0 m 0 ft / 0 m

Approach Navaids

Runway Type Ident Frequency Range Bearing (true) Bearing (mag) Slope Elevation
34 Localiser BP 111.35 MHz 27 nm / 50 km 342.81° 340.32° - 25 ft / 8 m (AMSL)
34 Glidescope BP 111.35 MHz 27 nm / 50 km 342.81° 340.32° 3.00° 25 ft / 8 m (AMSL)
34 DME BP 111.35 MHz 18 nm / 33 km - - - 69 ft / 21 m (AMSL)

Popular Alternatives